Flag for Norway Weather past 2 weeks in Kristiansand, Norway

Now
50 °F

Partly cloudy.


Feels Like: 48 °F
Forecast: 50 / 60 °F
Wind: 5 mph from East

Location: Kristiansand / Kjevik

Current Time: Aug 22, 2014 at 4:23:08 AM

Latest Report: Aug 22, 2014 at 3:50 AM


Visibility: 5 mi

Pressure: 29.68 "Hg

Humidity: 94%

Dew point: 48 °F

Location of KristiansandLocation

Historic Weather in Kristiansand — Graph

°F

Kristiansand temperature yesterday

Maximum temperature yesterday: 63 °F (at 12:50 PM)
Minimum temperature yesterday: 52 °F (at 4:50 AM)
Average temperature yesterday: 57 °F

Past Weeks' High & Low Weather Summary

 TemperatureHumidityPressure
High72 °F (Aug 7, 11:50 AM)100% (Aug 7, 3:50 AM)29.92 "Hg (Aug 7, 3:50 AM)
Low45 °F (Aug 18, 4:20 AM)43% (Aug 16, 2:20 PM)29.18 "Hg (Aug 18, 1:50 PM)
Average60 °F78%29.57 "Hg
* Reported Aug 7 2:20 AM — Aug 22 2:50 AM, Kristiansand, Weather by CustomWeather, © 2014

Note: Actual official high and low records may vary slightly from our data, if they occured in-between our weather recording intervals... More about our weather records

Advertising

Kristiansand weather history for previous 24 hours

 ConditionsComfort  
Time TempWeatherWind HumidityBarometerVisibility
2:50 AM
Aug 22
50 °FOvercast.5 mph100%29.68 "HgN/A
2:20 AM50 °FPassing clouds.3 mph100%29.68 "HgN/A
1:50 AM52 °FPassing clouds.2 mph94%29.68 "HgN/A
1:20 AM52 °FPassing clouds.2 mph94%29.71 "HgN/A
12:50 AM52 °FLight rain. Passing clouds.1 mph94%29.71 "HgN/A
12:20 AM52 °FLight rain. Partly cloudy.3 mph88%29.71 "HgN/A
11:50 PM
Aug 21
52 °FLight rain. Partly cloudy.5 mph88%29.71 "HgN/A
11:20 PM52 °FOvercast.3 mph88%29.71 "HgN/A
10:50 PM54 °FPassing clouds.3 mph77%29.71 "HgN/A
10:20 PM54 °FPassing clouds.6 mph77%29.71 "HgN/A
9:50 PM55 °FPassing clouds.6 mph72%29.71 "HgN/A
9:20 PM55 °FPassing clouds.9 mph72%29.71 "HgN/A
8:50 PM55 °FPassing clouds.9 mph72%29.71 "HgN/A
8:20 PM57 °FPassing clouds.9 mph67%29.71 "HgN/A
7:50 PM57 °FPassing clouds.12 mph67%29.71 "HgN/A
7:20 PM59 °FPassing clouds.12 mph59%29.71 "HgN/A
6:50 PM59 °FPassing clouds.15 mph63%29.71 "HgN/A
6:20 PM61 °FPassing clouds.12 mph59%29.71 "HgN/A
5:50 PM61 °FPassing clouds.15 mph55%29.71 "HgN/A
5:20 PM61 °FPassing clouds.16 mph59%29.71 "HgN/A
4:50 PM61 °FPassing clouds.15 mph55%29.71 "HgN/A
4:20 PM63 °FScattered clouds.18 mph52%29.71 "HgN/A
3:50 PM63 °FScattered clouds.18 mph49%29.71 "HgN/A
3:20 PM63 °FScattered clouds.15 mph49%29.71 "HgN/A
2:50 PM63 °FScattered clouds.14 mph49%29.71 "HgN/A
2:20 PM63 °FScattered clouds.13 mph52%29.71 "HgN/A
1:50 PM63 °FScattered clouds.14 mph49%29.71 "HgN/A
1:20 PM63 °FScattered clouds.16 mph52%29.71 "HgN/A
12:50 PM63 °FScattered clouds.18 mph49%29.71 "HgN/A
12:20 PM61 °FScattered clouds.14 mph52%29.71 "HgN/A
11:50 AM61 °FScattered clouds.9 mph52%29.71 "HgN/A
11:20 AM61 °FScattered clouds.12 mph52%29.68 "HgN/A
10:50 AM61 °FPassing clouds.12 mph52%29.68 "HgN/A
10:20 AM59 °FPassing clouds.10 mph59%29.68 "HgN/A
9:50 AM57 °FPassing clouds.10 mph59%29.68 "HgN/A
9:20 AM57 °FPassing clouds.10 mph59%29.68 "HgN/A
8:50 AM55 °FPassing clouds.9 mph67%29.68 "HgN/A
8:20 AM55 °FPassing clouds.6 mph67%29.68 "HgN/A
7:50 AM54 °FPassing clouds.6 mph72%29.65 "HgN/A
7:20 AM52 °FSunny.6 mph72%29.65 "Hg10 mi
6:50 AM52 °FPassing clouds.6 mph77%29.65 "HgN/A
6:20 AM52 °FPassing clouds.6 mph77%29.65 "HgN/A
5:50 AM52 °FPassing clouds.6 mph77%29.65 "HgN/A
5:20 AM52 °FPassing clouds.6 mph72%29.65 "HgN/A
4:50 AM52 °FPassing clouds.7 mph77%29.65 "HgN/A
4:20 AM54 °FPassing clouds.8 mph72%29.65 "HgN/A
Weather by CustomWeather, © 2014

See weather overviewHow to use our weather pages